Notices

What's New in latest Release from April 7th, 2021:

- Updated Glossary, including Speed of Maximum Gust, and Total Hourly Precipitation

- Updated national and regional climate services offices contacts and prices information

- Addition of station inventory lists for 1981-2010, 1971-2000, and 1961-1990 Normals.

If you haven't already, please take our survey and provide feedback about our website: https://eccc.sondage-survey.ca/f/LanguageSelection.aspx?s=442ca660-fcf1-47c0-95a9-59707d6fd709

Hourly Data Report for April 05, 2017

KUGAARUK CLIMATE
NUNAVUT

68°32'15.060" N
89°47'47.020" W
15.80 m
2303094
71407
NBB

Download Data

Hourly Data (April 2017)
Hourly Data Report for April 5, 2017
TIME
LST
Temp Definition
°C
Dew Point Definition
°C
Rel Hum Definition
%
Precip. Amount Definition
mm

Wind Dir Definition
10's deg

Wind Spd Definition
km/h
Visibility Definition
km
Stn Press Definition
kPa
Hmdx Definition


Wind Chill Definition


Weather Definition


00:00 -18.5 -20.8 82 0.0 23 19   101.35   -28 LegendNANA
01:00 -19.4 -22.0 80 0.0 23 26   101.34   -31 LegendNANA
02:00 -20.0 -22.6 80 0.0 24 23   101.35   -31 LegendNANA
03:00 -17.6 -20.3 80 0.0 22 21   101.35   -28 LegendNANA
04:00 -17.4 -20.0 80 0.0 23 21   101.36   -27 LegendNANA
05:00 -17.2 -20.2 77 0.0 22 23   101.37   -28 LegendNANA
06:00 -16.9 -20.3 75 0.0 22 26   101.36   -28 LegendNANA
07:00 -16.6 -20.1 74 0.0 22 26   101.36   -27 LegendNANA
08:00 -16.2 -19.6 75 0.0 24 21   101.39   -26 LegendNANA
09:00 -16.5 -20.7 70 0.0 26 21   101.40   -26 LegendNANA
10:00 -16.7 -21.0 69 0.0 25 18   101.41   -26 LegendNANA
11:00 -17.0 -21.4 69 0.0 26 20   101.44   -27 LegendNANA
12:00 -17.8 -22.5 67 0.0 26 18   101.46   -27 LegendNANA
13:00 -17.8 -22.4 68 0.0 25 18   101.48   -27 LegendNANA
14:00 -18.0 -22.4 68 0.0 27 19   101.51   -28 LegendNANA
15:00 -18.4 -22.8 68 0.0 27 19   101.55   -28 LegendNANA
16:00 -18.7 -22.6 71 0.0 27 22   101.57   -29 LegendNANA
17:00 -19.8 -23.3 74 0.0 26 19   101.61   -30 LegendNANA
18:00 -20.3 -23.5 75 0.0 26 23   101.65   -32 LegendNANA
19:00 -20.8 -24.0 76 0.0 26 23   101.66   -32 LegendNANA
20:00 -21.2 -24.4 75 0.0 23 20   101.67   -32 LegendNANA
21:00 -21.7 -24.7 77 0.0 23 27   101.66   -34 LegendNANA
22:00 -22.4 -25.3 77 0.2 24 29   101.70   -36 LegendNANA
23:00 -21.1 -24.1 76 0.0 24 22   101.75   -32 LegendNANA

Notes on Data Quality.

Legend

  • E = Estimated
  • M = Missing
  • NA = Not Available*
  • [empty] = Indicates an unobserved value
Date modified: